This demonstration page uses our WeatherBlox Daily Observations layout. Learn more.

Left ArrowRight Arrow

38.20091, -84.87328

Hourly Observations for September 11, 2022

Temp ( °F °C ) Dew Point ( °F °C ) Humidity (%) Winds ( mph kmh ) Pressure ( in mb ) Visibility ( mi km ) Precip ( " mm )
12:10 am 00:10 Mostly Cloudy 71 21.7 67 19.4 87 87 Calm 30.06 1018 10 16 0.00 0.00
12:31 am 00:31 Partly Cloudy 71 21.7 67 19.4 87 87 Calm 30.06 1018 10 16 0.00 0.00
12:53 am 00:53 Mostly Cloudy 71 21.7 67 19.4 87 87 SE 3 6 30.05 1018 10 16 0.00 0.00
1:53 am 01:53 Cloudy 71 21.7 67 19.4 87 87 SSE 3 6 30.05 1018 10 16 0.00 0.00
2:53 am 02:53 Cloudy 70 21.1 68 20 93 93 Calm 30.03 1017 10 16 0.00 0.00
3:53 am 03:53 Cloudy 70 21.1 68 20 93 93 Calm 30.02 1017 10 16 0.00 0.00
4:53 am 04:53 Cloudy 70 21.1 68 20 93 93 SSE 3 6 30.01 1016 10 16 0.00 0.00
5:53 am 05:53 Cloudy 70 21.1 67 19.4 90 90 S 7 11 30.01 1016 10 16 0.00 0.00
6:53 am 06:53 Cloudy 70 21.1 67 19.4 90 90 S 6 9 30.01 1016 10 16 0.00 0.00
7:53 am 07:53 Cloudy 70 21.1 68 20 93 93 S 3 6 30.01 1016 10 16 0.01 0.13
8:53 am 08:53 Cloudy 70 21.1 67 19.4 90 90 SSW 5 7 30.01 1016 10 16 0.00 0.00
9:12 am 09:12 Cloudy 71 21.7 68 20 90 90 SW 5 7 30.01 1016 10 16 0.00 0.00
9:21 am 09:21 Cloudy 71 21.7 68 20 90 90 SSW 6 9 30.01 1016 10 16 0.00 0.00
9:34 am 09:34 Cloudy with Heavy Rain 70 21.1 68 20 93 93 SSW 6 9 30.01 1016 2 3 0.03 0.76
9:42 am 09:42 Cloudy with Light Rain 70 21.1 69 20.6 97 97 S 3 6 30.01 1016 3 4 0.03 0.76
9:49 am 09:49 Cloudy 70 21 70 21 100 100 S 5 7 30.01 1016 10 16 0.03 0.76
9:53 am 09:53 Cloudy 71 21.7 69 20.6 93 93 SSE 3 6 30.01 1016 9 14 0.03 0.76
10:09 am 10:09 Cloudy 71 21.7 69 20.6 93 93 S 6 9 30.01 1016 10 16 0.01 0.25
10:21 am 10:21 Cloudy 72 22.2 69 20.6 91 91 S 5 7 30.00 1016 10 16 0.01 0.25
10:53 am 10:53 Cloudy 72 22.2 70 21.1 93 93 SSW 5 7 30.01 1016 10 16 0.01 0.25
11:00 am 11:00 Cloudy 72 22.2 69 20.6 91 91 S 6 9 30.00 1016 10 16 0.00 0.00
11:53 am 11:53 Cloudy 74 23.3 69 20.6 85 85 SSW 7 11 29.99 1016 10 16 0.00 0.00
12:11 pm 12:11 Cloudy 76 24.4 69 20.6 79 79 SW 9 15 29.98 1015 10 16 0.00 0.00
12:39 pm 12:39 Cloudy 77 25 70 21.1 79 79 SW 7 11 29.98 1015 10 16 0.00 0.00
12:53 pm 12:53 Cloudy 79 26.1 69 20.6 72 72 SSW 10 17 29.98 1015 10 16 0.00 0.00
1:36 pm 13:36 Mostly Cloudy 79 26.1 69 20.6 72 72 SSW 8 13 29.93 1014 10 16 0.00 0.00
1:53 pm 13:53 Cloudy with Heavy Rain 75 23.9 69 20.6 82 82 SSW 10 17 29.96 1015 2 3 0.05 1.27
2:00 pm 14:00 Cloudy with Heavy Rain 73 22.8 69 20.6 87 87 W 8 13 29.95 1014 1 2 0.04 1.02
2:07 pm 14:07 Cloudy with Heavy Rain 72 22.2 70 21.1 93 93 W 6 9 29.95 1014 1 1 0.13 3.30
2:19 pm 14:19 Cloudy with Rain 72 22.2 70 21.1 93 93 WSW 6 9 29.95 1014 1 2 0.23 5.84
2:23 pm 14:23 Cloudy with Heavy Rain 72 22.2 70 21.1 93 93 WSW 6 9 29.95 1014 1 1 0.32 8.13
2:37 pm 14:37 Cloudy with Rain 73 22.8 71 21.7 94 94 WSW 7 11 29.94 1014 1 2 0.47 11.94
2:45 pm 14:45 Cloudy with Light Rain 74 23.3 71 21.7 91 91 SW 7 11 29.94 1014 3 5 0.48 12.19
2:53 pm 14:53 Cloudy 74 23.3 71 21.7 91 91 SW 10 17 29.94 1014 10 16 0.48 12.19
3:53 pm 15:53 Cloudy with Light Rain 74 23.3 71 21.7 91 91 S 6 9 29.91 1013 10 16 0.01 0.13
4:53 pm 16:53 Cloudy with Light Rain 74 23.3 71 21.7 91 91 S 8 13 29.89 1012 8 13 0.02 0.51
5:53 pm 17:53 Sunny 75 23.9 71 21.7 88 88 SSW 7 11 29.89 1012 10 16 0.01 0.13
6:53 pm 18:53 Partly Cloudy 76 24.4 71 21.7 85 85 SSW 6 9 29.88 1012 10 16 0.00 0.00
7:53 pm 19:53 Mostly Cloudy 74 23.3 71 21.7 91 91 SW 5 7 29.88 1012 10 16 0.00 0.00
8:06 pm 20:06 Cloudy with Heavy Rain 73 22.8 71 21.7 94 94 W 6 9 29.88 1012 2 3 0.07 1.78
8:11 pm 20:11 Cloudy with Nearby Thunderstorms 72 22.2 70 21.1 93 93 WNW 6 9 29.90 1012 1 2 0.18 4.57
8:13 pm 20:13 Cloudy with Nearby Thunderstorms 71 21.7 69 20.6 93 93 WNW 6 9 29.90 1012 1 1 0.27 6.86
8:29 pm 20:29 Cloudy with Light Rain 71 21.7 67 19.4 87 87 SW 6 9 29.89 1012 3 4 0.72 18.29
8:36 pm 20:36 Cloudy with Light Rain 71 21.7 68 20 90 90 WNW 3 6 29.90 1012 8 13 0.72 18.29
8:43 pm 20:43 Cloudy with Heavy Rain 70 21.1 68 20 93 93 NW 6 9 29.91 1013 3 4 0.78 19.81
8:51 pm 20:51 Cloudy with Light Rain 70 21 68 20 94 94 WSW 3 6 29.91 1013 3 5 0.80 20.32
8:53 pm 20:53 Cloudy with Light Rain 70 21.1 68 20 93 93 SSW 5 7 29.91 1013 4 6 0.80 20.32
9:53 pm 21:53 Mostly Cloudy 69 20.6 N/A N/A SW 3 6 29.92 1013 10 16 0.01 0.25
10:53 pm 22:53 Mostly Cloudy 69 20.6 N/A N/A WSW 5 7 29.92 1013 10 16 0.00 0.00
11:31 pm 23:31 Mostly Cloudy 69 20.6 N/A N/A W 3 6 29.93 1014 10 16 0.00 0.00
11:53 pm 23:53 Cloudy 69 20.6 N/A N/A W 6 9 29.93 1014 10 16 0.00 0.00

Powered by AerisWeather